Regional Weather Roundup
Issued by NWS

Current Version | Previous Version | Text Only | Print | Product List | Glossary On
Versions: 1 2 3 4 5 6 7 8 9 10 11 12 13 14 15 16 17 18 19 20 21 22 23 24 25 26 27 28 29 30 31 32 33 34 35 36 37 38 39 40 41 42 43 44 45 46 47 48 49 50
000
ASCA42 TJSJ 031610
RWRPR
PUERTO RICO/U.S. VIRGIN ISLANDS HOURLY WEATHER ROUNDUP
NATIONAL WEATHER SERVICE SAN JUAN PR
1200 PM AST SUN MAY 03 2015

PRZ001-004-031700-
PUERTO RICO

CITY           SKY/WX    TMP DP  RH WIND       PRES   REMARKS
SAN JUAN LMM   PTSUNNY   90  73  58 E16       30.00F HX  98
PONCE          MOSUNNY   90  73  58 E12       29.97R HX  98
AGUADILLA      MOSUNNY   84  70  61 NW10      30.02S
$$

PRZ006-007-031700-
U.S. VIRGIN ISLANDS

CITY           SKY/WX    TMP DP  RH WIND       PRES   REMARKS
CHARLOTTE AMA  MOSUNNY   86  72  62 SE16      30.01F HX  92
CHRISTIANSTED  MOSUNNY   88  72  58 SE13G22   30.02F HX  94
$$

HOURLY WEATHER ROUNDUP FOR THE NEWS MEDIA

CITY           SKY/WX    TMP DP  RH WIND       PRES   REMARKS
ORLANDO        SUNNY     79  53  40 E9        30.17S
NEW YORK       PTSUNNY   62  45  53 SW9       30.11S
NEWARK         PTSUNNY   74  40  29 CALM      30.09S
CHICAGO        PTSUNNY   72  45  37 SW12G22   29.97S
HARTFORD       MOSUNNY   61  42  49 S12       30.08S
BOSTON         MOSUNNY   58  44  60 E10       30.07S
DALLAS         PTSUNNY   75  55  49 S12       30.03R
PHILADELPHIA   MOSUNNY   72  45  37 SE6       30.11S
LOS ANGELES    PTSUNNY   62  55  77 W8        29.93R
WASHINGTON DC  MOSUNNY   76  39  26 NW8       30.14S



USA.gov is the U.S. government's official web portal to all federal, state and local government web resources and services.